22.01.2017Höhe
ü. NN
ZeitTemperatur (°C)Nieder-
schlag
Luft-
feuchte
Luft-
druck
Wind
StationaktuellMinimumMaximumaktuellMaximum
Allmannsweiler625 m09:00-12,5-14,9 (05:20)-10,8 (00:00)0,0 l/m²93%1029,53,2 km/h (1 Bft) O-NO3,2 km/h (1 Bft) O-NO (05:25)
Allmendingen541 m09:00-14,6-18,1 (06:05)-14,6 (14:00)0,0 l/m²89%1030,50,0 km/h (0 Bft) SW8,0 km/h (2 Bft) S-SW (14:40)
Altshausen574 m08:56-11,7-14,2 (06:08)-10,3 (00:00)0,0 l/m²93%1028,11,6 km/h (1 Bft) N3,2 km/h (1 Bft) N (00:13)
Amstetten-Reutti663 m09:00-13,0-13,7 (07:00)-10,3 (14:40)0,0 l/m²91%1028,96,4 km/h (2 Bft) O17,7 km/h (3 Bft) O (16:00)
Aulendorf570 m09:00-12,2-13,1 (05:09)-10,8 (00:00)0,0 l/m²91%1028,96,4 km/h (2 Bft) NO8,0 km/h (2 Bft) NO (08:37)
Bad Schussenried572 m09:00-12,2-14,1 (05:25)-10,5 (00:00)0,0 l/m²94%1028,30,0 km/h (0 Bft) O-NO4,8 km/h (1 Bft) O-NO (07:15)
Bergatreute615 m09:00-10,8-15,1 (04:30)-10,7 (07:35)0,0 l/m²93%1029,70,0 km/h (0 Bft) NW0,0 km/h (0 Bft) N-NW (00:00)
Biberach (Riss)533 m08:40-12,1-14,6 (04:30)-10,5 (00:10)0,0 l/m²93%1025,30,0 km/h (0 Bft) N0,0 km/h (0 Bft) N (08:40)
Bodnegg-Rotheidlen677 m09:00-11,8-13,0 (07:10)-10,2 (00:30)0,0 l/m²92%1029,10,0 km/h (0 Bft) W0,0 km/h (0 Bft) W (00:00)
Burgrieden523 m09:00-12,6-14,8 (03:50)-11,8 (00:00)0,0 l/m²87%1030,00,0 km/h (0 Bft) S3,2 km/h (1 Bft) S-SW (07:20)
Burgrieden-Hochstetten510 m08:15-11,9-14,6 (03:40)-11,4 (14:45)0,0 l/m²91%1030,33,2 km/h (1 Bft) O6,4 km/h (2 Bft) NW (14:10)
Donauwörth411 m09:00-10,6-14,3 (05:00)-10,5 (08:55)0,0 l/m²93%1030,28,0 km/h (2 Bft) O-SO8,0 km/h (2 Bft) SO (09:00)
Ebersbach579 m09:00-12,2-14,8 (06:00)-11,1 (00:00)0,0 l/m²92%1030,50,0 km/h (0 Bft) N-NO0,0 km/h (0 Bft) N-NO (00:00)
Ebersbach-Boos605 m09:00-12,6-15,1 (06:05)-10,9 (00:00)0,0 l/m²92%1030,00,0 km/h (0 Bft) N0,0 km/h (0 Bft) N-NO (00:00)
Ebersbach-Menzenweiler661 m09:00-12,7-12,9 (08:30)-9,9 (00:35)0,0 l/m²92%1029,60,0 km/h (0 Bft) O11,3 km/h (2 Bft) O-NO (00:20)
Erlenmoos645 m09:00-12,1-13,3 (00:25)-12,0 (04:45)0,0 l/m²93%1029,80,0 km/h (0 Bft) O3,2 km/h (1 Bft) S-SO (05:40)
Ertingen569 m09:00-13,5-15,0 (07:15)-10,7 (00:00)0,0 l/m²91%1029,51,6 km/h (1 Bft) NW3,2 km/h (1 Bft) N-NW (00:10)
Friedrichshafen405 m08:55-9,3-10,0 (05:50)-8,2 (14:15)0,0 l/m²92%1029,78,0 km/h (2 Bft) N-NO14,5 km/h (3 Bft) N-NO (23:10)
Furkajoch (AT)1630 m08:501,60,8 (01:30)2,2 (03:30)0,0 l/m²16%1019,620,9 km/h (4 Bft) NO32,2 km/h (5 Bft) O-NO (02:55)
Günzburg443 m09:00-12,6-13,3 (03:30)-11,9 (00:00)0,0 l/m²88%1026,80,0 km/h (0 Bft) N3,2 km/h (1 Bft) NO (02:40)
Höchsten802 m09:00-5,9-10,5 (07:05)-5,2 (04:40)0,0 l/m²95%1026,34,8 km/h (1 Bft) O-NO14,5 km/h (3 Bft) N (00:15)
Horgenzell618 m09:00-13,3-13,3 (04:00)-11,5 (00:00)0,0 l/m²91%1027,40,0 km/h (0 Bft) NW8,0 km/h (2 Bft) NW (00:45)
Hoßkirch632 m09:00-12,6-14,4 (07:35)-10,8 (04:10)0,0 l/m²93%1029,21,6 km/h (1 Bft) N6,4 km/h (2 Bft) W-SW (03:15)
Isny im Allgäu695 m09:00-14,0-15,8 (03:45)-13,1 (05:55)0,0 l/m²90%1029,40,0 km/h (0 Bft) SW8,0 km/h (2 Bft) SW (01:00)
Kappel-Grafenhausen163 m08:55-9,1-10,3 (09:00)-7,9 (14:50)0,0 l/m²92%1026,83,2 km/h (1 Bft) N-NO6,4 km/h (2 Bft) N-NO (12:50)
Kirchberg an der Iller584 m09:00-12,1-13,5 (03:15)-12,1 (15:05)0,0 l/m²89%1016,80,0 km/h (0 Bft) NW4,2 km/h (1 Bft) S (19:25)
Kißlegg-Staibshof709 m09:00-12,3-13,4 (08:20)-8,9 (01:30)0,0 l/m²93%1029,10,0 km/h (0 Bft) N-NO8,0 km/h (2 Bft) NO (00:05)
Kressbronn398 m09:00-8,5-8,8 (08:32)-7,1 (00:00)0,0 l/m²91%1028,34,8 km/h (1 Bft) NO9,7 km/h (2 Bft) NO (00:16)
Kreuzthal-Steinbergalm930 m09:00-4,4-5,8 (08:00)-4,2 (09:00)0,0 l/m²97%1025,00,0 km/h (0 Bft) S-SO4,0 km/h (1 Bft) SW (04:20)
Kreuzthal-Steinberggipfel1040 m08:50-1,3-3,5 (01:00)-1,0 (08:50)-55%1025,03,6 km/h (1 Bft) N-NO5,8 km/h (2 Bft) N-NO (08:10)
Kristberg im Montafon (AT)1425 m09:00-2,4-3,7 (04:05)-1,4 (06:30)0,0 l/m²36%1024,91,6 km/h (1 Bft) N-NO11,3 km/h (2 Bft) NO (06:20)
Laupheim500 m09:00-12,6-13,8 (04:55)-11,3 (00:00)0,0 l/m²90%1029,61,6 km/h (1 Bft) O6,4 km/h (2 Bft) W-SW (02:50)
Leutkirch-Heggelbach670 m09:00-13,8-14,5 (04:15)-12,2 (00:00)0,0 l/m²91%1028,80,0 km/h (0 Bft) N-NO0,0 km/h (0 Bft) N-NO (00:00)
Lindau-Insel420 m09:00-9,4-9,7 (07:30)-6,9 (15:05)0,0 l/m²92%1028,86,4 km/h (2 Bft) NO14,5 km/h (3 Bft) NO (10:50)
Lindau-Stadt412 m09:00-9,7-9,9 (08:05)-7,4 (15:20)0,0 l/m²92%1028,83,2 km/h (1 Bft) O-NO11,3 km/h (2 Bft) NO (10:40)
Maierhöfen im Allgäu733 m09:00-18,7-19,2 (08:00)-16,9 (00:00)0,0 l/m²87%1030,50,0 km/h (0 Bft) S-SW1,6 km/h (1 Bft) S-SW (01:45)
Mindelheim-Apfeltrach620 m08:56-13,9-14,9 (23:18)-13,5 (15:24)0,0 l/m²90%1030,00,0 km/h (0 Bft) S-SO6,4 km/h (2 Bft) S-SO (09:07)
Neresheim552 m09:00-12,7-16,1 (05:00)-12,7 (09:00)0,0 l/m²97%1025,00,0 km/h (0 Bft) N0,0 km/h (0 Bft) N (09:00)
Neukirch570 m09:00-11,0-13,8 (03:05)-10,4 (14:20)0,0 l/m²92%1029,70,0 km/h (0 Bft) N-NO0,0 km/h (0 Bft) N (10:00)
Ochsenhausen613 m09:00-12,4-13,8 (01:45)-12,4 (00:00)0,0 l/m²85%1029,90,0 km/h (0 Bft) S3,2 km/h (1 Bft) S-SW (03:25)
Ostrach619 m08:55-11,3-12,1 (08:05)-9,3 (14:35)0,0 l/m²92%1023,33,2 km/h (1 Bft) N-NW8,0 km/h (2 Bft) N-NW (13:10)
Ravensburg428 m09:00-9,9-11,1 (06:50)-8,9 (00:00)0,0 l/m²92%1029,36,4 km/h (2 Bft) N14,5 km/h (3 Bft) NO (00:15)
Reichenbach an der Fils343 m09:00-11,6-12,4 (07:50)-7,7 (00:00)0,0 l/m²87%1030,23,2 km/h (1 Bft) O8,0 km/h (2 Bft) O (08:55)
Riedlingen530 m09:00-13,7-15,6 (07:20)-12,1 (00:00)0,0 l/m²91%1030,10,0 km/h (0 Bft) W3,2 km/h (1 Bft) O-NO (00:00)
Rißtissen489 m09:00-11,9-15,2 (05:05)-11,8 (00:00)0,0 l/m²91%1027,70,0 km/h (0 Bft) O-NO0,0 km/h (0 Bft) W (00:00)
Schemmerhofen520 m09:00-8,6-8,6 (00:00)-8,6 (00:00)0,0 l/m²94%1029,10,0 km/h (0 Bft) NO0,0 km/h (0 Bft) NO (00:00)
Silbertal im Montafon (AT)884 m09:00-7,8-8,1 (05:15)-7,3 (02:25)0,0 l/m²91%1029,20,0 km/h (0 Bft) N0,0 km/h (0 Bft) W-NW (00:00)
Tettnang466 m09:00-9,0-12,0 (02:10)-9,0 (09:00)0,0 l/m²92%1028,34,8 km/h (1 Bft) N-NO8,0 km/h (2 Bft) N (02:30)
Tuttlingen662 m08:55-17,0-18,0 (08:00)-14,6 (00:00)0,0 l/m²86%1030,01,6 km/h (1 Bft) O-NO3,2 km/h (1 Bft) O-NO (08:50)
Waldburg707 m09:00-11,4-12,9 (07:25)-10,7 (00:00)0,0 l/m²93%1029,00,0 km/h (0 Bft) NW0,0 km/h (0 Bft) N (00:00)
Waltenhofen im Allgäu720 m09:00-17,5-18,7 (08:05)-15,1 (00:00)0,0 l/m²88%1029,40,0 km/h (0 Bft) S1,6 km/h (1 Bft) S (01:00)
Wangen im Allgäu569 m09:05-12,4-15,0 (02:30)-11,8 (06:25)0,0 l/m²89%1028,40,0 km/h (0 Bft) N-NO6,4 km/h (2 Bft) N-NO (06:35)
Wangen-Epplings569 m09:00-14,3-17,4 (03:10)-14,2 (08:10)0,0 l/m²90%1030,30,0 km/h (0 Bft) SO8,0 km/h (2 Bft) O-SO (04:10)
Weingarten500 m09:00-10,1-12,8 (05:00)-9,9 (00:00)0,0 l/m²92%1029,54,8 km/h (1 Bft) W-SW8,0 km/h (2 Bft) NO (00:45)
Winterlingen785 m08:30-12,4-13,6 (08:15)-11,4 (06:15)0,0 l/m²91%1027,21,4 km/h (1 Bft) N-NO2,2 km/h (1 Bft) N-NW (08:20)

Werbung
niederschlagsdatenbank | info | login - erfassung

Sollten Sie Interesse haben, an der Niederschlagsdatenbank teilzunehmen, finden Sie > hier < weitere Informationen.

Niederschlagsdaten der Station Allmannsweiler - Eggatsweilerstr.28

Alexander Eisele

Niederschlagsstation aufgenommen ins Stationsnetz der Wetterwarte Süd am 04.07.2009
Monat: .
Anmerkung:0,0 = nicht messbarer Niederschlag
 -  = kein Niederschlag

Stationsdaten

Höhe

625 m

Lage

Auf Google Maps ansehen

Beschreibung

Die Siedlung wurde vermutlich im 8. Jahrhundert gegründet und urkundlich wohl 1268 als Albinswil erstmals erwähnt, 1292 wurde sie sicher als Almswiler genannt.<br><br> Allmannsweiler gehörte zur Stadt Saulgau, kam mit dieser 1298 in Besitz der Habsburger und war bis 1746 Teil Vorderösterreichs. In dieser Zeit gehörte der Ort zum Amt Bierstetten und war ab 1386 an die Truchsessen von Waldburg verpfändet, die ihn ihrerseits ab 1588 an die Grafen von Zimmern und die Herren von Königsegg weiterverpfändeten.<br><br> 1746 übertrug das Haus Waldburg Besitz und Grundherrschaft an das Kloster Schussenried.<br><br> Nach der Säkularisation 1803 kam der Ort mit dem Kloster zunächst an die Grafen von Sternberg-Manderscheid, die aber nie tatsächlich die Herrschaft ausübten.<br><br> 1806 wurde Allmannsweiler staatshoheitlich Teil des Königreichs Württemberg, 1814 übergaben die Grafen von Sternberg der württembergischen Krone auch den Besitz.<br><br> Von 1806 bis zu dessen Auflösung war Allmannsweiler Teil des Oberamts Saulgau (ab 1938: Landkreis Saulgau).<br><br> Am 1. Januar 1973 wurde die Gemeinde Teil des Landkreises Biberach, hat aber kurioserweise nach wie vor die Saulgauer Postleitzahl.<br><br> Fläche<br> Die Grö?e der Gemarkung beträgt 410 Hektar.<br><br> Höhenlage<br> 625 m über NN.<br><br> Einwohner<br> Die Einwohnerzahl beträgt ca. 330 Personen.
< Februar 2012April 2012 >

März 2012

TagNiederschlagBemerkung
01.-
02.-
03.-
04.-
05.-
06.-
07.-
08.-
09.-
10.-
11.-
12.-
13.-
14.-
15.-
16.-
17.-
18.-
19.-
20.-
21.-
22.-
23.-
24.-
25.-
26.-
27.-
28.-
29.-
30.-
31.-
Gesamt:0,0 
Die Spalten "Tag" und "Niederschlag" lassen sich durch Klicken auf den Spaltenkopf sortieren.
Die Angaben sind in l/m².

< Februar 2012April 2012 >


Monats- und Jahresniederschlag


Wetterbeobachtungen Legende:

  • Regen
  • Nieselregen
  • Schneeregen
  • Schnee
  • Graupel
  • Eiskörner
  • Hagel
  • Bodennebel
  • Gewitter
  • Nebelnässe
  • Schneegriesel

Grafische Darstellung der Niederschläge der Station Allmannsweiler März 2012

 
wetterstationen
wetterstationen
- derzeit 59 Stationen
niederschlagsdatenbank
wetterstationen
- kartographische Darstellung
niederschlagsdatenbank
niederschlagsstationen
- derzeit 105 Stationen
niederschlagsdatenbank
niederschlagsstationen
- kartographische Darstellung
 
 
Sa. 7.30 Uhr - So. 7.30 Uhr (MEZ)
1.Füramoos0,0 l/m²
2.Tannheim0,0 l/m²
 
So. 22.01.2017 - 7.30 Uhr (MEZ)
1.Kreuzthal-Steinberg40 cm
2.Bad Saulgau
Walserweg
15 cm
3.Tannheim14 cm
4.Weingarten
Laurastraße
8 cm-
5.Ochsenhausen6 cm
6.Balzheim4 cm
7.Langenau3cm
8.Riedhausen3 cm
9.Stuttgart-Möhringen1 cm
10.Herbertingen
Drosselweg
ca 5 cm
 
  treffpunkt & service
--- Anzeigen --------------------------------
neuburger it :: computer netzwerk administration
zugriffe:
insgesamt: 30.957.904
aktueller monat: 299.631
heute: 2.700
momentan online: 91
 
 
monatshöchstwert: 525.050
vorheriger monat: 222.585
gestern: 10.527
tageshöchstwert: 41.209
 
wetterwarte süd
 
konradstraße 3
info@wetterwarte-sued.com
roland roth
 
88427 bad schussenried